Location: ????????
(56.1167°N, 38.6333°E)
Time: 21:28:05
(UTC+00:00)

Cosmos 1428 Rocket - Pass Details

Date: 18 November 2025
Orbit: 947 x 986 km, 82.9° (Epoch: 06 December)

Event Time Altitude Azimuth Distance (km) Brightness Sun altitude
Rises 15:22:14 0° 348° (NNW) 3,681 7.6 -17.6°
Reaches altitude 10° 15:24:46 10° 350° (N) 2,735 6.9 -17.9°
Maximum altitude 15:31:02 74° 76° (ENE) 1,025 4.4 -18.8°
Drops below altitude 10° 15:37:20 10° 162° (SSE) 2,737 6.7 -19.7°
Sets 15:39:51 0° 164° (SSE) 3,684 7.4 -20.0°
